Location: ???????????
(54.5822°N, 39.1075°E)
Time: 06:14:09
(UTC+00:00)

IRIDIUM 114 - Pass Details

Date: 19 May 2025
Orbit: 776 x 779 km, 86.4° (Epoch: 15 June)

Event Time Altitude Azimuth Distance (km) Brightness Sun altitude
Exits shadow 22:31:44 19° 177° (S) 1,804 5.7 -13.9°
Maximum altitude 22:35:35 80° 93° (E) 799 4.4 -13.7°
Drops below altitude 10° 22:40:50 10° 7° (N) 2,345 8.2 -13.5°
Sets 22:43:12 0° 6° (N) 3,277 9.3 -13.3°
